Change the Weather History Date:

Tuesday, May 13, 2014

  Actual Average Record
Temperature  
Mean Temperature 59 °F -  
Max Temperature 66 °F 62 °F 89 °F (1977)
Min Temperature 51 °F 41 °F 28 °F (2013)
Degree Days  
Heating Degree Days 6    
Growing Degree Days 9 (Base 50)    
Moisture  
Dew Point 51 °F    
Average Humidity 76    
Maximum Humidity 94    
Minimum Humidity 62    
Precipitation  
Precipitation 0.07 in - - ()
Sea Level Pressure  
Sea Level Pressure 29.96 in    
Wind  
Wind Speed 12 mph (West)    
Max Wind Speed 15 mph    
Max Gust Speed 25 mph    
Visibility 10 miles    
Events Rain    
Averages and records for this station are not official NWS values.
T = Trace of Precipitation, MM = Missing Value Source: NWS Daily Summary

Daily Weather History Graph

Daily Weather History Graph

Search for Another Location

Airport or City:

Trip Planner

Search our weather history database for the weather conditions in past years. The results will help you decide how hot, cold, wet, or windy it might be!

Date:

Astronomy

May. 13, 2014 Rise Set
Actual Time 5:26 AM CDT 8:08 PM CDT
Civil Twilight 4:53 AM CDT 8:41 PM CDT
Nautical Twilight 4:11 AM CDT 9:23 PM CDT
Astronomical Twilight 3:23 AM CDT 10:12 PM CDT
Moon 7:07 PM CDT (5/13) 4:46 AM CDT (5/13)
Length of Visible Light 15h 48m
Length of Day
14h 41m
Waxing Gibbous, 99% of the Moon is Illuminated
May 13
Waxing Gibbous
May 14
Full
May 21
Last Quarter
May 28
New
Jun 5
First Quarter

Hourly Weather History & Observations

Time (CDT) Temp. Dew Point Humidity Pressure Visibility Wind Dir Wind Speed Gust Speed Precip Events Conditions
1:56 AM 66.0 °F 59.0 °F 78% 29.80 in 10.0 mi SSW 13.8 mph - 0.01 in Rain Light Rain
2:56 AM 62.1 °F 59.0 °F 90% 29.75 in 10.0 mi South 11.5 mph - 0.01 in   Partly Cloudy
3:56 AM 64.0 °F 60.1 °F 87% 29.80 in 10.0 mi SW 8.1 mph - 0.01 in   Clear
4:56 AM 64.0 °F 60.1 °F 87% 29.82 in 10.0 mi South 8.1 mph - 0.01 in   Clear
5:56 AM 66.0 °F 60.1 °F 81% 29.85 in 10.0 mi WSW 12.7 mph 20.7 mph N/A   Overcast
6:56 AM 66.0 °F 62.1 °F 87% 29.87 in 5.0 mi WSW 15.0 mph 25.3 mph 0.01 in Rain Light Rain
8:12 AM 59.0 °F 57.2 °F 94% 29.84 in 10.0 mi WNW 12.7 mph - 0.01 in   Overcast
8:37 AM 57.2 °F 53.6 °F 88% 29.84 in 10.0 mi WNW 13.8 mph 23.0 mph 0.01 in   Overcast
11:52 AM 57.2 °F 48.2 °F 72% 29.91 in 10.0 mi West 9.2 mph - N/A   Overcast
11:56 AM 57.0 °F 50.0 °F 77% 29.98 in 10.0 mi West 9.2 mph - N/A   Overcast
12:56 PM 55.9 °F 50.0 °F 80% 29.99 in 10.0 mi West 9.2 mph - 0.01 in   Overcast
1:56 PM 57.0 °F 48.9 °F 74% 29.99 in 10.0 mi West 13.8 mph 20.7 mph N/A   Overcast
2:56 PM 57.9 °F 48.9 °F 72% 30.00 in 10.0 mi West 12.7 mph - N/A   Overcast
3:56 PM 55.9 °F 46.9 °F 72% 30.02 in 10.0 mi West 13.8 mph 24.2 mph 0.01 in   Overcast
4:56 PM 55.9 °F 45.0 °F 67% 30.04 in 10.0 mi West 12.7 mph 21.9 mph N/A   Overcast
5:56 PM 55.9 °F 44.1 °F 64% 30.05 in 10.0 mi West 15.0 mph 21.9 mph N/A   Scattered Clouds
6:56 PM 57.0 °F 44.1 °F 62% 30.06 in 10.0 mi WNW 11.5 mph - N/A   Clear
8:56 PM 54.0 °F 42.1 °F 64% 30.12 in 10.0 mi WNW 11.5 mph - N/A   Clear
9:56 PM 53.1 °F 42.1 °F 66% 30.16 in 10.0 mi WNW 9.2 mph - N/A   Clear
10:56 PM 52.0 °F 41.0 °F 66% 30.18 in 10.0 mi WNW 11.5 mph - N/A   Clear
11:56 PM 51.1 °F 41.0 °F 68% 30.18 in 10.0 mi WNW 8.1 mph - N/A   Clear